846  
ASUS44 KJAN 180210  
RWRMS  
 
MISSISSIPPI HOURLY WEATHER ROUNDUP  
NATIONAL WEATHER SERVICE JACKSON MS  
900 PM CDT TUE JUL 17 2018  
 
NOTE: "FAIR: INDICATES FEW OR NO CLOUDS BELOW 12,000 FEET WITH NO  
SIGNIFICANT WEATHER AND/OR S TO VISIBILITY
.  
 
MSZ001>002-007>008-010>013-018>021-025>028-034>036-180300-  
NORTHWEST MISSISSIPPI  
 
CITY SKY/WX TMP DP RH WIND PRES REMARKS
 
CLARKSDALE CLEAR 79 79 100 W6 29.99R  
CLEVELAND FAIR 76 76 100 S3 29.98S  
GREENWOOD FAIR 78 75 90 SW3 29.97F  
GREENVILLE FAIR 76 73 91 SE5 29.98R  
OXFORD FAIR 79 73 83 SW3 30.00R  
TUNICA N/A 77 73 88 CALM 29.98S  
WINONA FAIR 73 73 100 CALM 29.99S  

 
 
MSZ003>006-009-014>017-022>024-029>033-037>039-180300-  
NORTHEAST MISSISSIPPI  
 
CITY SKY/WX TMP DP RH WIND PRES REMARKS
 
ABERDEEN MOCLDY 79 79 100 VRB5 30.02R  
COLUMBUS AFB TSTM 73 72 94 S6 30.02S FOG  
CORINTH FAIR 77 70 78 S6 29.98F  
GOLDN TRIANGLE TSTM 75 72 90 N12 30.03R  
STARKVILLE FAIR 79 75 89 CALM 30.00S  
TUPELO FAIR 79 72 79 CALM 29.99R  

 
 
MSZ040-058-180300-  
CENTRAL MISSISSIPPI  
 
CITY SKY/WX TMP DP RH WIND PRES REMARKS
 
JACKSON INTL FAIR 79 75 87 SW6 30.00S  
JACKSON HAWKNS FAIR 80 77 90 SW6 30.00F  
MADISON FAIR 77 77 100 CALM 30.00S  
MERIDIAN KEY FAIR 75 71 87 CALM 29.99F  
MERIDIAN NAS CLOUDY 73 72 96 CALM 29.99S  
RAYMOND FAIR 81 79 94 SW6 29.99F  
VICKSBURG VKS CLEAR 81 79 94 CALM 30.00S  

 
 
MSZ059>079-180300-  
SOUTH MISSISSIPPI  
 
CITY SKY/WX TMP DP RH WIND PRES REMARKS
 
COLUMBIA FAIR 79 75 89 CALM 30.04S  
HATTIESBURG FAIR 78 75 90 CALM 29.99F  
LAUREL FAIR 80 77 90 CALM 29.99F  
MCCOMB FAIR 78 74 87 CALM 30.01F  
NATCHEZ FAIR 78 77 96 SE3 30.02R  
PINE BELT FAIR 78 75 90 CALM 30.00F  

 
 
MSZ080>082-180300-  
COASTAL MISSISSIPPI  
 
CITY SKY/WX TMP DP RH WIND PRES REMARKS
 
BAY ST LOUIS PTCLDY 77 75 94 CALM 30.00R  
BILOXI FAIR 76 74 96 SW3 29.99S  
PASCAGOULA FAIR 76 74 93 CALM 29.99S  
GULFPORT FAIR 77 75 93 E3 29.99R  

 
 
LAZ007>009-015>016-023>026-180300-  
NORTHEAST LOUISIANA  
 
CITY SKY/WX TMP DP RH WIND PRES REMARKS
 
BASTROP FAIR 79 79 98 CALM 29.99S  
TALLULAH/VBURG FAIR 80 80 100 CALM 29.99S  
VIDALIA FAIR 79 78 96 SE5 29.99F  

 
 
 
CLICK HERE TO GO TO PREVIOUS BULLETINS.

The Nexlab MS Page Main Text Page